Waarnemingen

Advertentie
Mijn weer
St-Girons, Frankrijk (7627): temperatuur & dauwpunt: 19.02.2018 20:00:00 - 25.02.2018 20:00:00 (CET)St-Girons, Frankrijk (7627): temperatuur 5cm: 19.02.2018 20:00:00 - 25.02.2018 20:00:00 (CET)St-Girons, Frankrijk (7627): temperatuur -20cm & temperatuur -100cm: 19.02.2018 20:00:00 - 25.02.2018 20:00:00 (CET)St-Girons, Frankrijk (7627): windsnelheid & windstoten: 19.02.2018 20:00:00 - 25.02.2018 20:00:00 (CET)St-Girons, Frankrijk (7627): windrichting: 19.02.2018 20:00:00 - 25.02.2018 20:00:00 (CET)St-Girons, Frankrijk (7627): luchtdruk: 19.02.2018 20:00:00 - 25.02.2018 20:00:00 (CET)St-Girons, Frankrijk (7627): zicht: 19.02.2018 20:00:00 - 25.02.2018 20:00:00 (CET)St-Girons, Frankrijk (7627): Zonneschijnduur: 19.02.2018 20:00:00 - 25.02.2018 20:00:00 (CET)St-Girons, Frankrijk (7627): neerslag: 19.02.2018 20:00:00 - 25.02.2018 20:00:00 (CET)
Datum & Tijd tt [°C] td [°C] tt 5cm [°C] tt -20cm [°C] tt -100cm [°C] ff [km/u] ff [kn] fx [km/u] fx [kn] dd ppp [hPa] vv [km] sd [min] rr [mm]
25.02.2018 20:00:00 6,0 2,3 5,6 7,6 8,5 10 5 23 12 WNW 1014,2 10 0 0,0
25.02.2018 19:00:00 6,4 2,3 5,9 7,5 8,5 12 6 32 17 NNW 1013,4 10 0 0,0
25.02.2018 18:00:00 7,4 2,1 7,4 7,4 8,5 19 10 32 18 NW 1012,0 12 60 0,0
25.02.2018 17:00:00 9,5 0,4 11,5 7,3 8,5 22 12 37 20 NNW 1010,9 19 60 0,0
25.02.2018 16:00:00 11,7 -1,5 15,4 7,1 8,5 21 11 39 21 NNW 1009,9 20 60 0,0
25.02.2018 15:00:00 12,1 -1,5 15,8 7,1 8,5 17 9 33 18 NW 1009,6 20 60 0,0
25.02.2018 14:00:00 11,0 -0,5 15,4 7,1 8,5 14 8 31 17 NW 1009,9 20 60 0,0
25.02.2018 13:00:00 10,2 1,6 15,0 7,1 8,5 10 5 22 12 NW 1011,0 20 60 0,0
25.02.2018 12:00:00 8,8 -0,3 14,6 7,1 8,5 11 6 20 11 WNW 1011,8 20 60 0,0
25.02.2018 11:00:00 7,6 -0,6 12,2 7,2 8,5 8 4 18 10 W 1012,3 17 60 0,0
25.02.2018 10:00:00 6,0 0,7 8,4 7,1 8,5 3 2 7 4 ONO 1013,2 13 60 0,0
25.02.2018 09:00:00 2,8 1,0 -2,1 7,2 8,6 0 0 6 4 N 1013,6 7 27 0,0
25.02.2018 08:00:00 0,5 0,5 -2,3 7,2 8,6 0 0 6 4 N 1013,4 7 0 0,0
25.02.2018 07:00:00 2,1 0,5 0,6 7,2 8,6 0 0 4 2 N 1012,5 9 0 0,0
25.02.2018 06:00:00 2,4 0,5 0,9 7,3 8,6 0 0 5 3 N 1012,6 11 0 0,0
25.02.2018 05:00:00 2,6 0,5 1,4 7,3 8,6 3 1 4 2 NNW 1012,0 10 0 0,0
25.02.2018 04:00:00 2,9 0,6 2,3 7,4 8,6 2 1 6 4 NW 1012,2 10 0 -
25.02.2018 03:00:00 2,9 0,9 2,6 7,4 8,6 5 3 11 6 WZW 1012,5 8 0 0,0
25.02.2018 02:00:00 2,9 0,9 2,3 7,4 8,6 8 4 10 6 ZZO 1012,7 8 0 0,0
25.02.2018 01:00:00 2,7 0,4 2,3 7,4 8,6 5 3 8 4 W 1013,2 10 0 0,0
25.02.2018 00:00:00 2,8 0,5 1,9 7,4 8,6 0 0 8 4 N 1012,6 11 0 0,0
24.02.2018 23:00:00 2,6 0,3 0,6 7,4 8,6 0 0 6 3 N 1012,8 9 0 0,0
24.02.2018 22:00:00 2,7 -0,4 0,9 7,3 8,6 0 0 5 3 N 1012,5 12 0 0,0
24.02.2018 21:00:00 3,1 -0,2 1,7 7,3 8,6 0 0 6 4 N 1012,0 10 0 0,0
24.02.2018 20:00:00 3,3 -0,9 0,0 7,3 8,6 4 2 7 4 WZW 1011,9 15 0 0,0
24.02.2018 19:00:00 4,2 -1,0 0,3 7,1 8,6 2 1 9 5 W 1011,2 15 0 0,0
24.02.2018 18:00:00 6,3 -1,1 5,9 7,0 8,6 6 3 12 6 NNW 1010,5 16 22 0,0
24.02.2018 17:00:00 7,3 -1,9 10,5 6,8 8,6 7 4 18 10 NNW 1009,6 16 55 0,0
24.02.2018 16:00:00 8,0 -1,8 11,3 6,8 8,6 8 4 19 11 N 1009,0 18 48 0,0
24.02.2018 15:00:00 8,3 -1,5 12,3 6,7 8,6 7 4 18 10 NO 1008,5 18 31 0,0
24.02.2018 14:00:00 8,5 -2,8 15,1 6,7 8,6 5 3 13 7 NO 1008,6 19 60 0,0
24.02.2018 13:00:00 6,8 -2,9 13,9 6,6 8,6 5 3 10 5 NW 1009,2 18 60 0,0
24.02.2018 12:00:00 6,2 -3,2 12,8 6,7 8,6 4 2 13 7 O 1009,8 17 60 0,0
24.02.2018 11:00:00 4,4 -3,4 9,9 6,8 8,6 5 3 11 6 ZO 1010,0 16 60 0,0
24.02.2018 10:00:00 2,9 -2,8 3,9 6,9 8,6 5 3 9 5 OZO 1010,4 16 60 0,0
24.02.2018 09:00:00 0,3 -3,3 -3,0 6,9 8,6 5 3 11 6 ZO 1011,1 15 25 0,0
24.02.2018 08:00:00 -1,5 -4,2 -5,1 7,0 8,6 13 7 19 10 Z 1010,9 13 0 0,0
24.02.2018 07:00:00 -2,5 -4,4 -5,0 7,0 8,7 9 5 11 6 Z 1010,3 11 0 0,0
24.02.2018 06:00:00 -2,5 -4,2 -5,3 7,0 8,6 6 4 10 6 ZZO 1010,3 10 0 0,0
24.02.2018 05:00:00 -1,8 -3,5 -4,4 7,1 8,6 4 2 6 3 Z 1010,0 10 0 0,0
24.02.2018 04:00:00 0,0 -2,1 -1,2 7,1 8,6 0 0 4 2 N 1009,8 8 0 0,0
24.02.2018 03:00:00 0,1 -1,5 -1,0 7,2 8,7 0 0 4 2 N 1010,0 7 0 0,0
24.02.2018 02:00:00 0,3 -1,5 -0,5 7,2 8,6 0 0 4 2 N 1009,9 7 0 0,0
24.02.2018 01:00:00 0,2 -1,6 -0,2 7,2 8,6 0 0 6 3 N 1010,2 6 0 0,0
24.02.2018 00:00:00 0,3 -1,9 -0,2 7,3 8,7 0 0 4 2 N 1010,5 7 0 0,0
23.02.2018 23:00:00 0,1 -2,1 -1,4 7,3 8,6 0 0 6 4 N 1010,6 7 0 0,0
23.02.2018 22:00:00 -0,5 -2,2 -4,0 7,3 8,7 6 3 7 4 ZZO 1010,6 8 0 0,0
23.02.2018 21:00:00 -0,3 -3,2 -3,4 7,2 8,6 0 0 4 2 N 1010,4 10 0 0,0
23.02.2018 20:00:00 1,9 -3,2 0,2 7,2 8,7 2 1 8 4 NNO 1010,1 12 0 0,0
23.02.2018 19:00:00 2,5 -3,0 1,9 7,2 8,7 3 1 9 5 N 1009,9 12 0 0,0
23.02.2018 18:00:00 2,9 -3,0 3,0 7,1 8,7 5 3 13 7 N 1009,3 12 0 0,0
23.02.2018 17:00:00 3,7 -2,9 5,2 7,0 8,7 5 3 12 6 N 1008,9 13 0 0,0
23.02.2018 16:00:00 4,1 -3,4 6,1 7,0 8,7 6 3 14 8 NNW 1009,0 14 0 0,0
23.02.2018 15:00:00 3,6 -5,1 5,8 7,0 8,7 6 3 14 8 NNW 1009,2 15 0 0,0
23.02.2018 14:00:00 3,7 -4,0 5,9 7,0 8,7 8 5 17 9 WNW 1009,6 15 0 0,0
23.02.2018 13:00:00 3,6 -4,4 5,5 7,0 8,7 10 6 22 12 WNW 1009,9 16 0 0,0
23.02.2018 12:00:00 3,1 -3,9 5,2 7,0 8,7 14 7 22 12 NW 1010,3 16 3 0,0
23.02.2018 11:00:00 3,3 -3,7 6,0 7,0 8,7 7 4 14 8 NW 1010,3 14 52 0,0
23.02.2018 10:00:00 3,0 -2,7 2,2 7,1 8,7 4 2 10 6 N 1010,7 13 54 0,0
23.02.2018 09:00:00 0,1 -2,3 -0,9 7,1 8,7 0 0 4 2 N 1010,9 11 0 0,0
23.02.2018 08:00:00 -0,4 -2,9 -1,0 7,2 8,7 0 0 10 5 N 1011,0 11 0 0,0
23.02.2018 07:00:00 -0,6 -2,7 -1,7 7,2 8,7 6 3 9 5 ZZO 1011,2 9 0 0,0
23.02.2018 06:00:00 -1,1 -2,7 -3,8 7,3 8,7 3 1 4 2 Z 1011,2 8 0 0,0
23.02.2018 05:00:00 -1,2 -4,0 -3,9 7,4 8,7 0 0 6 4 N 1011,1 11 0 0,0
23.02.2018 04:00:00 -0,3 -4,0 -3,1 7,4 8,7 5 3 13 7 ZW 1011,1 11 0 0,0
23.02.2018 03:00:00 0,4 -3,9 -1,1 7,5 8,7 10 5 19 10 WNW 1011,5 12 0 0,0
23.02.2018 02:00:00 1,2 -3,5 0,5 7,5 8,7 10 5 18 10 NW 1011,7 13 0 0,0
23.02.2018 01:00:00 1,6 -3,3 1,0 7,5 8,7 9 5 23 12 NW 1011,8 13 0 0,0
23.02.2018 00:00:00 2,5 -3,6 1,9 7,5 8,7 14 8 27 14 WNW 1011,8 14 0 0,0
22.02.2018 23:00:00 2,9 -4,1 2,3 7,6 8,7 16 9 35 19 WNW 1011,7 15 0 0,0
22.02.2018 22:00:00 3,3 -4,2 1,2 7,6 8,7 12 6 27 15 W 1011,7 15 0 0,0
22.02.2018 21:00:00 1,9 -1,7 1,2 7,6 8,7 0 0 11 6 N 1012,3 11 0 0,0
22.02.2018 20:00:00 1,8 -2,2 1,0 7,6 8,7 9 5 12 7 Z 1012,2 10 0 0,0
22.02.2018 19:00:00 2,4 -3,3 1,8 7,6 8,7 6 3 14 8 ZZW 1012,1 10 0 0,0
22.02.2018 18:00:00 2,3 -3,6 1,8 7,6 8,7 4 2 24 13 W 1011,8 14 0 0,0
22.02.2018 17:00:00 2,3 -4,0 2,1 7,5 8,7 13 7 37 20 WNW 1011,7 14 0 0,0
22.02.2018 16:00:00 3,7 -1,9 4,6 7,5 8,7 18 10 44 24 N 1010,9 10 1 0,0
22.02.2018 15:00:00 5,6 -3,5 5,5 7,5 8,7 21 12 42 23 WNW 1009,9 20 19 0,0
22.02.2018 14:00:00 5,7 -3,1 4,6 7,6 8,7 24 13 46 25 WNW 1010,1 20 41 0,0
22.02.2018 13:00:00 4,3 -3,2 4,2 7,5 8,7 27 15 45 24 WNW 1011,1 19 28 0,0
22.02.2018 12:00:00 4,0 -2,2 3,9 7,6 8,7 22 12 40 21 WNW 1012,0 15 33 0,0
22.02.2018 11:00:00 2,1 -2,8 1,8 7,6 8,7 23 12 39 21 WNW 1012,9 13 20 0,0
22.02.2018 10:00:00 1,2 -2,9 1,0 7,7 8,7 18 10 37 20 W 1013,5 11 0 0,0
22.02.2018 09:00:00 1,0 -3,1 0,6 7,7 8,7 17 9 34 18 WNW 1013,5 12 0 0,0
22.02.2018 08:00:00 0,8 -3,1 0,5 7,8 8,7 18 10 30 16 WNW 1013,2 12 0 0,0
22.02.2018 07:00:00 0,9 -2,9 0,5 7,8 8,7 13 7 22 12 WNW 1013,3 12 0 0,0
22.02.2018 06:00:00 0,9 -2,5 0,7 7,9 8,7 14 8 27 14 WNW 1013,3 11 0 0,0
22.02.2018 05:00:00 1,0 -2,1 0,8 7,9 8,7 14 7 26 14 NW 1013,6 11 0 0,0
22.02.2018 04:00:00 1,4 -1,2 1,2 8,0 8,7 11 6 19 11 WNW 1013,5 9 0 0,0
22.02.2018 03:00:00 1,6 -1,3 1,3 8,0 8,7 10 5 16 9 NW 1014,1 11 0 0,0
22.02.2018 02:00:00 1,8 -1,8 1,5 8,0 8,7 8 4 17 9 NW 1014,4 13 0 0,0
22.02.2018 01:00:00 2,1 -1,9 1,9 8,1 8,7 10 5 23 13 NW 1014,7 15 0 0,0
22.02.2018 00:00:00 2,7 -1,3 2,4 8,1 8,7 13 7 24 13 WNW 1015,1 16 0 0,0
21.02.2018 23:00:00 3,2 -1,6 2,8 8,2 8,7 15 8 23 13 WNW 1015,0 18 0 0,0
21.02.2018 22:00:00 3,4 -2,0 2,6 8,2 8,7 10 5 15 8 WNW 1015,5 20 0 0,0
21.02.2018 21:00:00 3,3 -2,2 2,4 8,2 8,7 9 5 19 11 W 1015,5 20 0 0,0
21.02.2018 20:00:00 3,4 -2,0 2,9 8,1 8,7 11 6 19 11 W 1015,5 20 0 0,0
21.02.2018 19:00:00 3,7 -1,7 3,2 8,1 8,7 11 6 22 12 WNW 1015,2 20 0 0,0
21.02.2018 18:00:00 4,0 -1,8 3,7 8,1 8,7 15 8 31 17 NW 1014,6 20 0 0,0
21.02.2018 17:00:00 4,6 -1,6 4,7 8,1 8,7 18 10 35 19 NW 1014,1 20 0 0,0
21.02.2018 16:00:00 5,2 -1,1 6,3 8,0 8,6 16 9 36 19 NNW 1013,9 20 12 0,0
21.02.2018 15:00:00 5,5 -1,4 5,7 8,0 8,7 26 14 43 23 NW 1013,8 20 34 0,0
21.02.2018 14:00:00 6,1 -1,3 6,5 8,1 8,7 23 12 36 19 NW 1014,0 20 47 0,0
21.02.2018 13:00:00 4,7 -0,7 5,2 8,1 8,7 26 14 40 22 W 1014,7 20 16 0,0
21.02.2018 12:00:00 4,7 0,8 5,9 8,1 8,7 20 11 31 17 WNW 1015,3 20 26 0,0
21.02.2018 11:00:00 4,5 1,7 4,1 8,2 8,7 16 8 25 13 NW 1015,6 20 0 0,0
21.02.2018 10:00:00 3,6 0,6 3,4 8,2 8,7 6 3 20 11 W 1015,7 20 0 0,0
21.02.2018 09:00:00 3,9 2,1 3,5 8,2 8,7 12 7 27 14 NNW 1015,2 20 0 0,2
21.02.2018 08:00:00 4,6 4,6 4,4 8,2 8,7 11 6 25 14 N 1013,9 7 0 1,0
21.02.2018 07:00:00 4,8 4,8 4,5 8,3 8,6 14 8 34 19 NW 1013,6 20 0 2,8
21.02.2018 06:00:00 4,9 4,9 4,1 8,3 8,6 21 12 34 19 NW 1013,2 6 0 2,8
21.02.2018 05:00:00 4,8 4,8 4,3 8,4 8,6 16 8 30 16 W 1013,1 4,0 0 3,5
21.02.2018 04:00:00 5,5 5,2 4,9 8,4 8,6 13 7 29 16 W 1013,1 20 0 0,8
21.02.2018 03:00:00 5,2 5,2 4,8 8,4 8,6 17 9 34 19 W 1014,1 3,5 0 2,4
21.02.2018 02:00:00 5,7 5,7 5,2 8,4 8,6 8 4 20 11 WZW 1014,7 11 0 1,8
21.02.2018 01:00:00 6,4 6,3 5,7 8,4 8,6 15 8 41 22 WNW 1015,5 8 0 3,8
21.02.2018 00:00:00 7,1 7,1 6,6 8,4 8,6 16 9 30 16 W 1015,6 6 0 0,6
20.02.2018 23:00:00 7,3 7,3 6,5 8,4 8,6 20 11 36 19 WNW 1016,7 20 0 0,5
20.02.2018 22:00:00 7,0 7,0 6,5 8,5 8,6 16 9 39 21 WNW 1017,2 3,7 0 1,2
20.02.2018 21:00:00 7,2 7,2 6,6 8,5 8,6 18 10 36 20 W 1017,5 4,7 0 1,8
20.02.2018 20:00:00 7,2 7,2 6,6 8,5 8,6 23 12 39 21 WNW 1017,4 6 0 1,8
20.02.2018 19:00:00 7,7 6,2 6,8 8,4 8,6 23 13 41 22 WNW 1017,1 9 0 1,0
20.02.2018 18:00:00 8,3 5,6 7,3 8,4 8,6 18 10 40 22 W 1016,7 20 0 0,0
20.02.2018 17:00:00 8,7 5,3 7,9 8,4 8,6 18 10 47 25 W 1016,9 20 6 0,0
20.02.2018 16:00:00 8,1 6,1 7,7 8,4 8,6 20 11 41 22 WNW 1017,3 20 0 0,0
20.02.2018 15:00:00 8,3 6,6 8,0 8,4 8,6 19 10 40 21 WNW 1017,1 19 0 1,4
20.02.2018 14:00:00 8,4 6,0 7,7 8,4 8,6 23 12 50 27 W 1017,4 14 0 0,0
20.02.2018 13:00:00 8,4 5,5 7,0 8,4 8,6 23 12 61 33 W 1017,6 20 0 1,0
20.02.2018 12:00:00 8,1 6,1 7,2 8,4 8,6 27 14 47 25 W 1017,6 4,8 0 3,3
20.02.2018 11:00:00 7,9 6,5 7,3 8,5 8,6 22 12 39 21 W 1017,3 6 0 5,2
20.02.2018 10:00:00 8,1 7,7 7,5 8,5 8,6 14 8 30 16 NW 1016,9 8 0 3,4
20.02.2018 09:00:00 8,4 6,7 7,4 8,5 8,6 17 9 36 20 W 1016,8 8 0 2,4
20.02.2018 08:00:00 7,8 7,8 6,0 8,5 8,6 10 5 20 11 WNW 1017,0 8 0 2,1
20.02.2018 07:00:00 6,4 6,4 6,2 8,5 8,6 4 2 6 4 OZO 1017,0 7 0 2,4
20.02.2018 06:00:00 6,9 6,9 6,5 8,5 8,5 0 0 14 7 N 1017,2 10 0 2,6
20.02.2018 05:00:00 7,4 7,4 6,9 8,6 8,5 3 2 10 5 WNW 1017,3 6 0 2,8
20.02.2018 04:00:00 7,6 7,6 7,2 8,6 8,5 7 4 22 12 W 1017,3 6 0 2,7
20.02.2018 03:00:00 7,6 7,6 7,3 8,6 8,5 13 7 25 14 WNW 1017,9 2,9 0 2,8
20.02.2018 02:00:00 7,8 7,8 7,5 8,6 8,5 12 6 21 11 WNW 1017,8 4,0 0 2,8
20.02.2018 01:00:00 7,9 7,9 7,5 8,6 8,5 5 3 14 8 W 1018,0 5 0 2,8
20.02.2018 00:00:00 7,9 7,9 7,5 8,6 8,5 10 5 24 13 WNW 1018,0 8 0 1,8
19.02.2018 23:00:00 8,0 8,0 7,7 8,6 8,5 12 6 22 12 W 1017,9 11 0 1,7
19.02.2018 22:00:00 7,9 7,9 7,7 8,6 8,5 8 5 21 11 WNW 1018,1 9 0 1,6
19.02.2018 21:00:00 7,9 7,9 7,7 8,6 8,5 8 5 14 8 NW 1018,2 8 0 2,4
19.02.2018 20:00:00 8,0 8,0 7,9 8,6 8,5 6 4 13 7 NNW 1018,1 6 0 1,2

tt = temperatuur
td = dauwpunt
tt 5cm = temperatuur 5cm
tt -20cm = temperatuur -20cm
tt -100cm = temperatuur -100cm
ff = windsnelheid
fx = windstoten
dd = windrichting
ppp = luchtdruk
vv = zicht
sd = Zonneschijnduur
rr = neerslag

Weerstations in de omgeving